Time,TemperatureF,DewpointF,PressureIn,WindDirection,WindDirectionDegrees,WindSpeedMPH,WindSpeedGustMPH,Humidity,HourlyPrecipIn,Conditions,Clouds,dailyrainin,SoftwareType,DateUTC
2013-04-09 00:00:00,61.9,33.0,29.38,ESE,120,2.2,3.8,34,-99.99,,,-99.99,WSDL version 342,2013-04-09 04:00:00,
2013-04-09 00:02:00,61.9,33.1,29.35,ESE,122,0.7,3.8,34,-99.99,,,-99.99,WSDL version 342,2013-04-09 04:02:00,
2013-04-09 00:05:00,61.9,33.2,29.35,ESE,117,0.7,3.8,34,-99.99,,,-99.99,WSDL version 342,2013-04-09 04:05:00,
2013-04-09 00:07:00,61.9,33.2,29.35,ESE,113,1.0,3.8,34,-99.99,,,-99.99,WSDL version 342,2013-04-09 04:07:00,
2013-04-09 00:12:00,61.9,33.2,29.35,ESE,113,0.4,2.5,34,-99.99,,,-99.99,WSDL version 342,2013-04-09 04:12:00,
2013-04-09 00:17:00,61.9,33.2,29.38,ESE,107,0.8,3.1,34,-99.99,,,-99.99,WSDL version 342,2013-04-09 04:17:00,
2013-04-09 00:22:00,61.9,33.2,29.38,SE,132,1.0,3.1,34,-99.99,,,-99.99,WSDL version 342,2013-04-09 04:22:00,
2013-04-09 00:27:00,61.9,33.2,29.38,ESE,116,2.2,2.9,34,-99.99,,,-99.99,WSDL version 342,2013-04-09 04:27:00,
2013-04-09 00:32:00,61.9,33.6,29.38,ESE,122,3.4,5.6,35,-99.99,,,-99.99,WSDL version 342,2013-04-09 04:32:00,
2013-04-09 00:37:00,62.0,34.1,29.35,ESE,122,2.7,7.2,35,-99.99,,,-99.99,WSDL version 342,2013-04-09 04:37:00,
2013-04-09 00:42:00,62.1,34.1,29.35,SE,135,3.4,7.2,35,-99.99,,,-99.99,WSDL version 342,2013-04-09 04:42:00,
2013-04-09 00:47:00,62.0,34.0,29.38,SE,129,2.5,6.5,35,-99.99,,,-99.99,WSDL version 342,2013-04-09 04:47:00,
2013-04-09 00:52:00,61.9,34.1,29.38,SE,135,1.7,7.6,36,-99.99,,,-99.99,WSDL version 342,2013-04-09 04:52:00,
2013-04-09 00:57:00,61.9,34.7,29.38,SE,139,2.9,7.6,36,-99.99,,,-99.99,WSDL version 342,2013-04-09 04:57:00,
2013-04-09 01:02:00,61.7,34.5,29.38,SE,135,2.3,4.9,36,-99.99,,,-99.99,WSDL version 342,2013-04-09 05:02:00,
2013-04-09 01:08:00,61.5,34.3,29.38,SE,140,2.8,4.7,36,-99.99,,,-99.99,WSDL version 342,2013-04-09 05:08:00,
2013-04-09 01:13:00,61.3,34.2,29.38,SE,127,1.7,3.6,36,-99.99,,,-99.99,WSDL version 342,2013-04-09 05:13:00,
2013-04-09 01:18:00,61.3,34.6,29.38,SSE,151,1.7,5.4,37,-99.99,,,-99.99,WSDL version 342,2013-04-09 05:18:00,
2013-04-09 01:23:00,61.3,34.9,29.38,SE,135,0.8,5.4,37,-99.99,,,-99.99,WSDL version 342,2013-04-09 05:23:00,
2013-04-09 01:29:00,61.2,34.7,29.38,South,174,1.0,3.8,37,-99.99,,,-99.99,WSDL version 342,2013-04-09 05:29:00,
2013-04-09 01:34:00,61.2,35.2,29.38,SSE,158,1.8,4.7,38,-99.99,,,-99.99,WSDL version 342,2013-04-09 05:34:00,
2013-04-09 01:39:00,61.2,35.2,29.38,SSE,150,0.6,4.7,37,-99.99,,,-99.99,WSDL version 342,2013-04-09 05:39:00,
2013-04-09 01:44:00,61.2,34.9,29.38,SSE,150,0.7,4.3,38,-99.99,,,-99.99,WSDL version 342,2013-04-09 05:44:00,
2013-04-09 01:50:00,61.2,35.4,29.38,SE,144,1.6,4.0,38,-99.99,,,-99.99,WSDL version 342,2013-04-09 05:50:00,
2013-04-09 01:55:00,61.2,35.9,29.38,SSE,167,1.6,5.4,38,-99.99,,,-99.99,WSDL version 342,2013-04-09 05:55:00,
2013-04-09 02:00:00,61.0,36.1,29.38,SE,143,2.9,5.4,40,-99.99,,,-99.99,WSDL version 342,2013-04-09 06:00:00,
2013-04-09 02:05:00,61.0,36.6,29.38,SSE,164,1.1,4.9,41,-99.99,,,-99.99,WSDL version 342,2013-04-09 06:05:00,
2013-04-09 02:10:00,61.0,36.9,29.38,SSW,196,1.6,4.0,40,-99.99,,,-99.99,WSDL version 342,2013-04-09 06:10:00,
2013-04-09 02:15:00,61.0,37.1,29.38,South,188,1.2,4.0,41,-99.99,,,-99.99,WSDL version 342,2013-04-09 06:15:00,
2013-04-09 02:20:00,61.1,37.4,29.35,SSE,165,2.3,3.8,41,-99.99,,,-99.99,WSDL version 342,2013-04-09 06:20:00,
2013-04-09 02:25:00,61.2,37.3,29.35,SW,217,1.1,4.0,41,-99.99,,,-99.99,WSDL version 342,2013-04-09 06:25:00,
2013-04-09 02:30:00,61.2,36.7,29.35,SE,128,0.4,4.0,40,-99.99,,,-99.99,WSDL version 342,2013-04-09 06:30:00,
2013-04-09 02:35:00,61.0,37.0,29.35,SSE,167,2.1,4.0,42,-99.99,,,-99.99,WSDL version 342,2013-04-09 06:35:00,
2013-04-09 02:40:00,61.2,37.6,29.35,SSW,196,1.9,5.6,42,-99.99,,,-99.99,WSDL version 342,2013-04-09 06:40:00,
2013-04-09 02:45:00,61.2,37.9,29.35,SSE,168,1.7,5.6,42,-99.99,,,-99.99,WSDL version 342,2013-04-09 06:45:00,
2013-04-09 02:50:00,61.3,37.9,29.35,SW,222,0.4,3.1,41,-99.99,,,-99.99,WSDL version 342,2013-04-09 06:50:00,
2013-04-09 02:55:00,61.2,37.3,29.35,SW,222,0.2,2.9,41,-99.99,,,-99.99,WSDL version 342,2013-04-09 06:55:00,
2013-04-09 03:00:00,61.2,37.5,29.35,SW,225,0.6,3.4,41,-99.99,,,-99.99,WSDL version 342,2013-04-09 07:00:00,
2013-04-09 03:05:00,61.1,37.4,29.35,SW,217,1.0,3.4,41,-99.99,,,-99.99,WSDL version 342,2013-04-09 07:05:00,
2013-04-09 03:11:00,61.1,37.6,29.35,West,270,0.8,3.1,41,-99.99,,,-99.99,WSDL version 342,2013-04-09 07:11:00,
2013-04-09 03:17:00,60.8,36.8,29.38,SW,225,0.2,2.5,40,-99.99,,,-99.99,WSDL version 342,2013-04-09 07:17:00,
2013-04-09 03:23:00,60.8,37.2,29.38,WNW,289,1.0,3.1,41,-99.99,,,-99.99,WSDL version 342,2013-04-09 07:23:00,
2013-04-09 03:28:00,60.8,37.0,29.38,SSW,203,0.3,3.1,41,-99.99,,,-99.99,WSDL version 342,2013-04-09 07:28:00,
2013-04-09 03:33:00,60.6,37.4,29.38,WSW,251,0.4,2.7,42,-99.99,,,-99.99,WSDL version 342,2013-04-09 07:33:00,
2013-04-09 03:38:00,60.7,37.8,29.38,SSW,208,0.6,2.5,43,-99.99,,,-99.99,WSDL version 342,2013-04-09 07:38:00,
2013-04-09 03:43:00,60.8,38.2,29.38,WSW,240,0.3,4.0,43,-99.99,,,-99.99,WSDL version 342,2013-04-09 07:43:00,
2013-04-09 03:48:00,60.7,37.7,29.38,SSW,205,0.6,4.0,42,-99.99,,,-99.99,WSDL version 342,2013-04-09 07:48:00,
2013-04-09 03:53:00,60.9,38.1,29.38,SSW,210,1.3,3.4,43,-99.99,,,-99.99,WSDL version 342,2013-04-09 07:53:00,
2013-04-09 03:58:00,61.0,37.9,29.38,SSW,203,0.4,3.4,42,-99.99,,,-99.99,WSDL version 342,2013-04-09 07:58:00,
2013-04-09 04:03:00,60.9,37.3,29.35,SW,225,0.0,2.7,42,-99.99,,,-99.99,WSDL version 342,2013-04-09 08:03:00,
2013-04-09 04:08:00,61.0,37.4,29.35,SW,215,0.0,2.0,41,-99.99,,,-99.99,WSDL version 342,2013-04-09 08:08:00,
2013-04-09 04:14:00,61.2,37.3,29.35,South,190,0.2,3.1,41,-99.99,,,-99.99,WSDL version 342,2013-04-09 08:14:00,
2013-04-09 04:19:00,60.9,36.8,29.35,SSE,151,0.6,3.1,40,-99.99,,,-99.99,WSDL version 342,2013-04-09 08:19:00,
2013-04-09 04:24:00,60.8,36.7,29.35,SSE,158,0.4,3.1,40,-99.99,,,-99.99,WSDL version 342,2013-04-09 08:24:00,
2013-04-09 04:29:00,60.6,36.8,29.35,SW,225,0.0,3.1,41,-99.99,,,-99.99,WSDL version 342,2013-04-09 08:29:00,
2013-04-09 04:35:00,60.4,36.2,29.38,WSW,248,0.0,0.9,41,-99.99,,,-99.99,WSDL version 342,2013-04-09 08:35:00,
2013-04-09 04:40:00,60.3,36.5,29.38,SW,236,0.4,1.6,41,-99.99,,,-99.99,WSDL version 342,2013-04-09 08:40:00,
2013-04-09 04:45:00,60.4,36.7,29.38,SSW,210,0.3,1.6,42,-99.99,,,-99.99,WSDL version 342,2013-04-09 08:45:00,
2013-04-09 04:50:00,60.4,37.3,29.38,SSW,194,0.0,2.7,42,-99.99,,,-99.99,WSDL version 342,2013-04-09 08:50:00,
2013-04-09 04:55:00,60.4,37.4,29.38,SW,228,0.1,2.7,42,-99.99,,,-99.99,WSDL version 342,2013-04-09 08:55:00,
2013-04-09 05:00:00,60.6,38.0,29.38,SW,214,0.7,2.9,43,-99.99,,,-99.99,WSDL version 342,2013-04-09 09:00:00,
2013-04-09 05:05:00,60.4,37.3,29.38,WSW,241,0.4,2.9,42,-99.99,,,-99.99,WSDL version 342,2013-04-09 09:05:00,
2013-04-09 05:10:00,60.2,37.0,29.38,SW,236,0.1,1.6,42,-99.99,,,-99.99,WSDL version 342,2013-04-09 09:10:00,
2013-04-09 05:15:00,59.8,36.8,29.38,WSW,248,0.0,2.0,42,-99.99,,,-99.99,WSDL version 342,2013-04-09 09:15:00,
2013-04-09 05:20:00,59.5,36.4,29.38,SSW,206,0.0,2.5,42,-99.99,,,-99.99,WSDL version 342,2013-04-09 09:20:00,
2013-04-09 05:25:00,59.4,37.4,29.38,SW,225,0.6,2.9,44,-99.99,,,-99.99,WSDL version 342,2013-04-09 09:25:00,
2013-04-09 05:30:00,59.5,37.6,29.38,SW,214,0.1,2.9,44,-99.99,,,-99.99,WSDL version 342,2013-04-09 09:30:00,
2013-04-09 05:35:00,59.5,37.9,29.38,SW,222,1.0,2.7,45,-99.99,,,-99.99,WSDL version 342,2013-04-09 09:35:00,
2013-04-09 05:40:00,59.5,37.8,29.38,SW,219,1.2,2.7,45,-99.99,,,-99.99,WSDL version 342,2013-04-09 09:40:00,
2013-04-09 05:45:00,59.4,38.1,29.38,SW,222,0.0,4.0,45,-99.99,,,-99.99,WSDL version 342,2013-04-09 09:45:00,
2013-04-09 05:50:00,59.5,38.2,29.38,SW,219,1.7,5.4,45,-99.99,,,-99.99,WSDL version 342,2013-04-09 09:50:00,
2013-04-09 05:55:00,59.5,38.2,29.38,SSW,212,1.6,5.4,45,-99.99,,,-99.99,WSDL version 342,2013-04-09 09:55:00,
2013-04-09 06:00:00,59.7,38.3,29.38,SW,228,1.9,4.9,45,-99.99,,,-99.99,WSDL version 342,2013-04-09 10:00:00,
2013-04-09 06:05:00,59.7,38.4,29.38,SW,219,1.7,4.9,45,-99.99,,,-99.99,WSDL version 342,2013-04-09 10:05:00,
2013-04-09 06:10:00,59.4,37.8,29.38,SW,225,0.9,4.3,45,-99.99,,,-99.99,WSDL version 342,2013-04-09 10:10:00,
2013-04-09 06:15:00,59.5,38.1,29.38,SW,231,1.5,4.7,45,-99.99,,,-99.99,WSDL version 342,2013-04-09 10:15:00,
2013-04-09 06:20:00,59.8,38.1,29.38,West,276,2.7,9.6,44,-99.99,,,-99.99,WSDL version 342,2013-04-09 10:20:00,
2013-04-09 06:26:00,59.8,37.5,29.38,WSW,250,2.2,9.6,43,-99.99,,,-99.99,WSDL version 342,2013-04-09 10:26:00,
2013-04-09 06:31:00,59.8,37.3,29.38,SW,235,2.2,3.4,43,-99.99,,,-99.99,WSDL version 342,2013-04-09 10:31:00,
2013-04-09 06:36:00,60.1,36.9,29.35,SSW,197,1.9,4.3,42,-99.99,,,-99.99,WSDL version 342,2013-04-09 10:36:00,
2013-04-09 06:42:00,60.5,36.9,29.35,West,264,3.2,6.3,41,-99.99,,,-99.99,WSDL version 342,2013-04-09 10:42:00,
2013-04-09 06:47:00,60.7,36.5,29.38,WSW,256,2.9,6.3,40,-99.99,,,-99.99,WSDL version 342,2013-04-09 10:47:00,
2013-04-09 06:53:00,60.9,36.1,29.38,West,270,3.3,5.6,39,-99.99,,,-99.99,WSDL version 342,2013-04-09 10:53:00,
2013-04-09 06:59:00,61.2,35.9,29.38,West,275,3.6,8.1,38,-99.99,,,-99.99,WSDL version 342,2013-04-09 10:59:00,
2013-04-09 07:04:00,61.5,35.7,29.38,WSW,248,4.0,8.1,38,-99.99,,,-99.99,WSDL version 342,2013-04-09 11:04:00,
2013-04-09 07:09:00,61.5,35.5,29.38,West,270,3.6,6.5,37,-99.99,,,-99.99,WSDL version 342,2013-04-09 11:09:00,
2013-04-09 07:15:00,61.7,35.2,29.38,WSW,254,3.5,8.5,37,-99.99,,,-99.99,WSDL version 342,2013-04-09 11:15:00,
2013-04-09 07:20:00,61.9,35.3,29.38,West,276,2.9,8.5,37,-99.99,,,-99.99,WSDL version 342,2013-04-09 11:20:00,
2013-04-09 07:25:00,61.9,35.3,29.38,West,259,3.4,5.8,37,-99.99,,,-99.99,WSDL version 342,2013-04-09 11:25:00,
2013-04-09 07:30:00,62.1,35.5,29.38,West,259,3.7,4.9,37,-99.99,,,-99.99,WSDL version 342,2013-04-09 11:30:00,
2013-04-09 07:35:00,62.3,35.3,29.41,West,260,4.1,6.3,36,-99.99,,,-99.99,WSDL version 342,2013-04-09 11:35:00,
2013-04-09 07:40:00,62.5,35.2,29.41,West,267,4.2,6.3,36,-99.99,,,-99.99,WSDL version 342,2013-04-09 11:40:00,
2013-04-09 07:46:00,63.0,34.9,29.41,West,274,4.0,11.0,35,-99.99,,,-99.99,WSDL version 342,2013-04-09 11:46:00,
2013-04-09 07:51:00,63.5,35.0,29.41,West,264,3.6,11.0,34,-99.99,,,-99.99,WSDL version 342,2013-04-09 11:51:00,
2013-04-09 07:57:00,64.1,35.2,29.41,West,270,3.8,7.2,34,-99.99,,,-99.99,WSDL version 342,2013-04-09 11:57:00,
2013-04-09 08:02:00,64.3,35.1,29.41,WNW,285,4.1,8.1,33,-99.99,,,-99.99,WSDL version 342,2013-04-09 12:02:00,
2013-04-09 08:08:00,64.6,35.2,29.41,West,280,3.2,8.1,33,-99.99,,,-99.99,WSDL version 342,2013-04-09 12:08:00,
2013-04-09 08:13:00,65.0,35.2,29.41,West,270,3.6,8.1,33,-99.99,,,-99.99,WSDL version 342,2013-04-09 12:13:00,
2013-04-09 08:18:00,65.4,35.6,29.44,West,264,2.5,8.1,33,-99.99,,,-99.99,WSDL version 342,2013-04-09 12:18:00,
2013-04-09 08:23:00,65.8,35.1,29.44,WSW,253,3.8,7.6,32,-99.99,,,-99.99,WSDL version 342,2013-04-09 12:23:00,
2013-04-09 08:29:00,66.3,34.6,29.44,West,274,3.4,7.6,30,-99.99,,,-99.99,WSDL version 342,2013-04-09 12:29:00,
2013-04-09 08:34:00,66.7,33.6,29.41,SSW,203,3.8,8.1,30,-99.99,,,-99.99,WSDL version 342,2013-04-09 12:34:00,
2013-04-09 08:40:00,67.1,33.8,29.41,WSW,253,4.1,10.1,29,-99.99,,,-99.99,WSDL version 342,2013-04-09 12:40:00,
2013-04-09 08:45:00,67.5,33.5,29.41,WSW,254,5.1,10.1,28,-99.99,,,-99.99,WSDL version 342,2013-04-09 12:45:00,
2013-04-09 08:51:00,67.9,32.5,29.41,SW,231,5.8,8.7,26,-99.99,,,-99.99,WSDL version 342,2013-04-09 12:51:00,
2013-04-09 08:58:00,68.9,32.6,29.41,WSW,241,3.7,8.7,26,-99.99,,,-99.99,WSDL version 342,2013-04-09 12:58:00,
2013-04-09 09:03:00,69.3,32.9,29.44,West,260,5.8,9.8,26,-99.99,,,-99.99,WSDL version 342,2013-04-09 13:03:00,
2013-04-09 09:08:00,69.7,32.4,29.44,West,264,4.0,9.8,25,-99.99,,,-99.99,WSDL version 342,2013-04-09 13:08:00,
2013-04-09 09:13:00,70.3,32.5,29.44,SW,229,5.2,11.0,25,-99.99,,,-99.99,WSDL version 342,2013-04-09 13:13:00,
2013-04-09 09:18:00,70.7,32.7,29.41,WSW,253,5.3,11.0,24,-99.99,,,-99.99,WSDL version 342,2013-04-09 13:18:00,
2013-04-09 09:24:00,70.9,32.4,29.41,West,267,4.2,12.1,24,-99.99,,,-99.99,WSDL version 342,2013-04-09 13:24:00,
2013-04-09 09:29:00,71.4,32.3,29.41,WSW,248,4.8,12.1,23,-99.99,,,-99.99,WSDL version 342,2013-04-09 13:29:00,
2013-04-09 09:34:00,71.8,32.0,29.41,West,260,7.7,10.7,23,-99.99,,,-99.99,WSDL version 342,2013-04-09 13:34:00,
2013-04-09 09:39:00,72.1,31.7,29.41,West,267,8.1,19.0,22,-99.99,,,-99.99,WSDL version 342,2013-04-09 13:39:00,
2013-04-09 09:45:00,72.2,31.3,29.41,WNW,283,8.1,19.0,22,-99.99,,,-99.99,WSDL version 342,2013-04-09 13:45:00,
2013-04-09 09:50:00,72.5,31.5,29.41,WSW,251,9.8,17.4,22,-99.99,,,-99.99,WSDL version 342,2013-04-09 13:50:00,
2013-04-09 09:55:00,72.6,31.6,29.41,West,274,6.3,17.0,22,-99.99,,,-99.99,WSDL version 342,2013-04-09 13:55:00,
2013-04-09 10:00:00,72.8,31.8,29.41,WSW,248,8.4,15.7,22,-99.99,,,-99.99,WSDL version 342,2013-04-09 14:00:00,
2013-04-09 10:05:00,73.0,32.0,29.41,WSW,251,7.0,17.0,22,-99.99,,,-99.99,WSDL version 342,2013-04-09 14:05:00,
2013-04-09 10:10:00,73.5,31.6,29.41,West,260,7.0,17.0,21,-99.99,,,-99.99,WSDL version 342,2013-04-09 14:10:00,
2013-04-09 10:15:00,73.7,31.4,29.41,SW,235,8.1,17.7,21,-99.99,,,-99.99,WSDL version 342,2013-04-09 14:15:00,
2013-04-09 10:20:00,73.7,31.4,29.38,WSW,244,9.5,17.7,21,-99.99,,,-99.99,WSDL version 342,2013-04-09 14:20:00,
2013-04-09 10:25:00,73.7,31.4,29.38,West,259,6.7,12.8,21,-99.99,,,-99.99,WSDL version 342,2013-04-09 14:25:00,
2013-04-09 10:31:00,74.7,32.2,29.38,West,264,5.4,10.7,21,-99.99,,,-99.99,WSDL version 342,2013-04-09 14:31:00,
2013-04-09 10:37:00,74.8,32.3,29.38,SW,236,8.3,12.3,21,-99.99,,,-99.99,WSDL version 342,2013-04-09 14:37:00,
2013-04-09 10:42:00,74.3,31.9,29.38,WNW,286,7.1,12.3,21,-99.99,,,-99.99,WSDL version 342,2013-04-09 14:42:00,
2013-04-09 10:48:00,74.8,30.4,29.38,West,278,6.7,15.2,18,-99.99,,,-99.99,WSDL version 342,2013-04-09 14:48:00,
2013-04-09 10:54:00,74.9,28.6,29.38,WSW,253,8.1,15.2,18,-99.99,,,-99.99,WSDL version 342,2013-04-09 14:54:00,
2013-04-09 10:59:00,75.1,28.7,29.38,West,264,8.1,12.8,18,-99.99,,,-99.99,WSDL version 342,2013-04-09 14:59:00,
2013-04-09 11:04:00,75.3,28.9,29.38,West,259,6.2,12.8,18,-99.99,,,-99.99,WSDL version 342,2013-04-09 15:04:00,
2013-04-09 11:09:00,75.3,28.9,29.38,West,280,7.4,17.2,18,-99.99,,,-99.99,WSDL version 342,2013-04-09 15:09:00,
2013-04-09 11:14:00,75.6,29.1,29.38,WSW,253,6.1,17.2,18,-99.99,,,-99.99,WSDL version 342,2013-04-09 15:14:00,
2013-04-09 11:22:00,76.5,25.4,29.38,WSW,251,5.6,10.5,15,-99.99,,,-99.99,WSDL version 342,2013-04-09 15:22:00,
2013-04-09 11:27:00,76.4,25.4,29.38,WSW,253,7.0,16.1,15,-99.99,,,-99.99,WSDL version 342,2013-04-09 15:27:00,
2013-04-09 11:32:00,76.8,25.7,29.38,West,267,7.3,16.1,15,-99.99,,,-99.99,WSDL version 342,2013-04-09 15:32:00,
2013-04-09 11:38:00,77.1,26.0,29.38,West,262,7.4,14.8,15,-99.99,,,-99.99,WSDL version 342,2013-04-09 15:38:00,
2013-04-09 11:43:00,77.6,26.4,29.38,WSW,255,4.8,14.8,15,-99.99,,,-99.99,WSDL version 342,2013-04-09 15:43:00,
2013-04-09 11:48:00,78.4,26.9,29.38,West,263,5.0,7.6,15,-99.99,,,-99.99,WSDL version 342,2013-04-09 15:48:00,
2013-04-09 11:53:00,79.0,27.4,29.38,West,261,6.2,10.5,15,-99.99,,,-99.99,WSDL version 342,2013-04-09 15:53:00,
2013-04-09 11:58:00,79.3,27.7,29.38,West,278,4.8,10.5,15,-99.99,,,-99.99,WSDL version 342,2013-04-09 15:58:00,
2013-04-09 12:03:00,79.9,25.5,29.38,West,263,4.7,10.5,12,-99.99,,,-99.99,WSDL version 342,2013-04-09 16:03:00,
2013-04-09 12:08:00,79.6,23.6,29.38,West,276,6.6,13.2,12,-99.99,,,-99.99,WSDL version 342,2013-04-09 16:08:00,
2013-04-09 12:15:00,79.6,22.6,29.38,West,264,6.7,14.5,12,-99.99,,,-99.99,WSDL version 342,2013-04-09 16:15:00,
2013-04-09 12:20:00,79.3,23.7,29.35,West,267,7.3,15.7,15,-99.99,,,-99.99,WSDL version 342,2013-04-09 16:20:00,
2013-04-09 12:25:00,80.2,25.7,29.35,West,280,5.0,15.7,12,-99.99,,,-99.99,WSDL version 342,2013-04-09 16:25:00,
2013-04-09 12:30:00,80.2,23.0,29.35,West,270,5.3,10.7,12,-99.99,,,-99.99,WSDL version 342,2013-04-09 16:30:00,
2013-04-09 12:35:00,80.5,23.3,29.41,WSW,244,5.2,10.5,12,-99.99,,,-99.99,WSDL version 342,2013-04-09 16:35:00,
2013-04-09 12:40:00,80.6,23.3,29.41,SW,225,5.7,13.4,12,-99.99,,,-99.99,WSDL version 342,2013-04-09 16:40:00,
2013-04-09 12:45:00,81.3,23.9,29.41,SW,228,4.3,13.4,12,-99.99,,,-99.99,WSDL version 342,2013-04-09 16:45:00,
2013-04-09 12:51:00,81.6,24.1,29.38,WSW,240,3.6,12.1,12,-99.99,,,-99.99,WSDL version 342,2013-04-09 16:51:00,
2013-04-09 12:56:00,81.4,24.0,29.38,WNW,293,7.8,13.0,12,-99.99,,,-99.99,WSDL version 342,2013-04-09 16:56:00,
2013-04-09 13:01:00,81.5,24.0,29.38,SW,235,4.3,13.0,12,-99.99,,,-99.99,WSDL version 342,2013-04-09 17:01:00,
2013-04-09 13:07:00,81.8,24.3,29.38,West,281,4.3,13.2,12,-99.99,,,-99.99,WSDL version 342,2013-04-09 17:07:00,
2013-04-09 13:12:00,82.0,24.4,29.38,WNW,283,7.0,15.4,12,-99.99,,,-99.99,WSDL version 342,2013-04-09 17:12:00,
2013-04-09 13:17:00,82.5,23.3,29.38,West,264,6.0,15.4,11,-99.99,,,-99.99,WSDL version 342,2013-04-09 17:17:00,
2013-04-09 13:22:00,82.1,23.8,29.38,West,279,8.5,14.5,12,-99.99,,,-99.99,WSDL version 342,2013-04-09 17:22:00,
2013-04-09 13:27:00,82.3,24.0,29.38,West,274,3.4,12.8,11,-99.99,,,-99.99,WSDL version 342,2013-04-09 17:27:00,
2013-04-09 13:33:00,82.9,23.1,29.38,West,276,6.3,13.4,11,-99.99,,,-99.99,WSDL version 342,2013-04-09 17:33:00,
2013-04-09 13:38:00,82.9,23.0,29.38,West,267,6.0,13.4,11,-99.99,,,-99.99,WSDL version 342,2013-04-09 17:38:00,
2013-04-09 13:43:00,83.8,23.8,29.38,WNW,289,2.3,10.7,11,-99.99,,,-99.99,WSDL version 342,2013-04-09 17:43:00,
2013-04-09 13:48:00,84.0,23.9,29.38,West,274,3.4,10.1,11,-99.99,,,-99.99,WSDL version 342,2013-04-09 17:48:00,
2013-04-09 13:53:00,84.0,23.9,29.38,NW,305,4.4,10.1,11,-99.99,,,-99.99,WSDL version 342,2013-04-09 17:53:00,
2013-04-09 13:58:00,83.7,23.7,29.38,West,259,5.9,11.0,11,-99.99,,,-99.99,WSDL version 342,2013-04-09 17:58:00,
2013-04-09 14:04:00,83.7,23.7,29.38,West,274,3.9,11.0,11,-99.99,,,-99.99,WSDL version 342,2013-04-09 18:04:00,
2013-04-09 14:09:00,83.3,23.4,29.38,WSW,253,5.6,11.0,11,-99.99,,,-99.99,WSDL version 342,2013-04-09 18:09:00,
2013-04-09 14:14:00,84.2,24.1,29.38,West,270,3.4,8.5,11,-99.99,,,-99.99,WSDL version 342,2013-04-09 18:14:00,
2013-04-09 14:19:00,84.6,24.4,29.38,East,94,2.5,9.8,11,-99.99,,,-99.99,WSDL version 342,2013-04-09 18:19:00,
2013-04-09 14:24:00,84.6,24.4,29.38,West,260,4.3,12.1,11,-99.99,,,-99.99,WSDL version 342,2013-04-09 18:24:00,
2013-04-09 14:29:00,84.4,24.2,29.38,WSW,248,5.6,12.1,11,-99.99,,,-99.99,WSDL version 342,2013-04-09 18:29:00,
2013-04-09 14:34:00,85.6,25.1,29.35,West,264,3.1,10.7,11,-99.99,,,-99.99,WSDL version 342,2013-04-09 18:34:00,
2013-04-09 14:39:00,85.3,24.9,29.35,WSW,248,4.8,13.2,11,-99.99,,,-99.99,WSDL version 342,2013-04-09 18:39:00,
2013-04-09 14:45:00,85.3,24.9,29.35,WNW,283,5.5,12.1,11,-99.99,,,-99.99,WSDL version 342,2013-04-09 18:45:00,
2013-04-09 14:50:00,86.5,25.8,29.35,WNW,296,1.6,8.7,11,-99.99,,,-99.99,WSDL version 342,2013-04-09 18:50:00,
2013-04-09 14:55:00,85.7,25.2,29.35,West,270,6.5,12.5,11,-99.99,,,-99.99,WSDL version 342,2013-04-09 18:55:00,
2013-04-09 15:00:00,85.7,25.2,29.35,SSW,209,3.3,12.5,11,-99.99,,,-99.99,WSDL version 342,2013-04-09 19:00:00,
2013-04-09 15:05:00,85.8,25.3,29.35,West,266,3.5,10.7,11,-99.99,,,-99.99,WSDL version 342,2013-04-09 19:05:00,
2013-04-09 15:11:00,85.2,24.8,29.35,WNW,296,6.1,10.7,11,-99.99,,,-99.99,WSDL version 342,2013-04-09 19:11:00,
2013-04-09 15:17:00,85.1,25.5,29.35,WSW,256,5.1,10.1,11,-99.99,,,-99.99,WSDL version 342,2013-04-09 19:17:00,
2013-04-09 15:22:00,85.2,26.9,29.35,WSW,256,4.2,10.1,11,-99.99,,,-99.99,WSDL version 342,2013-04-09 19:22:00,
2013-04-09 15:27:00,84.7,25.5,29.35,West,266,7.2,12.3,11,-99.99,,,-99.99,WSDL version 342,2013-04-09 19:27:00,
2013-04-09 15:32:00,84.4,25.2,29.35,West,270,7.3,12.3,11,-99.99,,,-99.99,WSDL version 342,2013-04-09 19:32:00,
2013-04-09 15:37:00,84.2,24.0,29.32,WNW,288,6.8,12.3,11,-99.99,,,-99.99,WSDL version 342,2013-04-09 19:37:00,
2013-04-09 15:42:00,84.7,24.5,29.32,WNW,300,3.6,10.3,11,-99.99,,,-99.99,WSDL version 342,2013-04-09 19:42:00,
2013-04-09 15:47:00,84.9,27.6,29.32,WNW,286,5.1,8.7,13,-99.99,,,-99.99,WSDL version 342,2013-04-09 19:47:00,
2013-04-09 15:52:00,84.8,28.6,29.32,WNW,289,5.2,9.8,13,-99.99,,,-99.99,WSDL version 342,2013-04-09 19:52:00,
2013-04-09 15:58:00,85.3,28.9,29.32,WSW,255,2.5,10.5,13,-99.99,,,-99.99,WSDL version 342,2013-04-09 19:58:00,
2013-04-09 16:04:00,86.6,25.9,29.32,West,276,3.9,7.4,11,-99.99,,,-99.99,WSDL version 342,2013-04-09 20:04:00,
2013-04-09 16:10:00,85.6,25.2,29.32,West,278,5.7,9.4,11,-99.99,,,-99.99,WSDL version 342,2013-04-09 20:10:00,
2013-04-09 16:15:00,85.0,27.4,29.32,WNW,287,5.1,9.4,13,-99.99,,,-99.99,WSDL version 342,2013-04-09 20:15:00,
2013-04-09 16:21:00,85.0,27.4,29.32,West,276,3.6,8.5,13,-99.99,,,-99.99,WSDL version 342,2013-04-09 20:21:00,
2013-04-09 16:26:00,85.5,29.1,29.32,West,262,3.9,8.1,13,-99.99,,,-99.99,WSDL version 342,2013-04-09 20:26:00,
2013-04-09 16:31:00,86.1,29.6,29.32,West,278,0.7,6.3,13,-99.99,,,-99.99,WSDL version 342,2013-04-09 20:31:00,
2013-04-09 16:37:00,86.2,29.6,29.32,NW,309,2.8,7.2,13,-99.99,,,-99.99,WSDL version 342,2013-04-09 20:37:00,
2013-04-09 16:42:00,86.2,29.7,29.32,WNW,286,2.4,7.2,13,-99.99,,,-99.99,WSDL version 342,2013-04-09 20:42:00,
2013-04-09 16:47:00,86.7,28.0,29.32,WNW,286,1.9,6.3,11,-99.99,,,-99.99,WSDL version 342,2013-04-09 20:47:00,
2013-04-09 16:53:00,86.4,28.8,29.32,WSW,253,1.5,6.3,13,-99.99,,,-99.99,WSDL version 342,2013-04-09 20:53:00,
2013-04-09 16:58:00,86.5,27.2,29.32,SSW,203,2.8,4.9,13,-99.99,,,-99.99,WSDL version 342,2013-04-09 20:58:00,
2013-04-09 17:03:00,86.2,29.6,29.35,West,278,3.1,5.4,13,-99.99,,,-99.99,WSDL version 342,2013-04-09 21:03:00,
2013-04-09 17:08:00,85.2,28.9,29.35,West,273,5.5,10.3,13,-99.99,,,-99.99,WSDL version 342,2013-04-09 21:08:00,
2013-04-09 17:13:00,84.1,23.9,29.35,WSW,256,3.5,11.0,11,-99.99,,,-99.99,WSDL version 342,2013-04-09 21:13:00,
2013-04-09 17:18:00,84.3,25.4,29.32,SW,214,2.0,11.0,13,-99.99,,,-99.99,WSDL version 342,2013-04-09 21:18:00,
2013-04-09 17:23:00,84.2,28.7,29.32,WSW,241,2.6,6.5,14,-99.99,,,-99.99,WSDL version 342,2013-04-09 21:23:00,
2013-04-09 17:28:00,84.0,28.3,29.32,WSW,251,2.5,6.5,14,-99.99,,,-99.99,WSDL version 342,2013-04-09 21:28:00,
2013-04-09 17:33:00,83.9,29.7,29.32,WSW,243,3.9,6.3,14,-99.99,,,-99.99,WSDL version 342,2013-04-09 21:33:00,
2013-04-09 17:38:00,83.3,23.3,29.32,West,273,3.1,8.1,11,-99.99,,,-99.99,WSDL version 342,2013-04-09 21:38:00,
2013-04-09 17:44:00,83.1,23.2,29.32,WSW,244,2.5,8.1,11,-99.99,,,-99.99,WSDL version 342,2013-04-09 21:44:00,
2013-04-09 17:50:00,83.0,23.1,29.29,SW,233,3.4,8.5,11,-99.99,,,-99.99,WSDL version 342,2013-04-09 21:50:00,
2013-04-09 17:56:00,83.0,23.1,29.29,WSW,242,2.6,5.6,11,-99.99,,,-99.99,WSDL version 342,2013-04-09 21:56:00,
2013-04-09 18:01:00,82.8,22.9,29.29,WSW,241,1.1,8.5,11,-99.99,,,-99.99,WSDL version 342,2013-04-09 22:01:00,
2013-04-09 18:06:00,82.5,23.3,29.32,SW,233,3.7,8.5,12,-99.99,,,-99.99,WSDL version 342,2013-04-09 22:06:00,
2013-04-09 18:11:00,82.2,24.6,29.32,WNW,293,2.2,6.0,12,-99.99,,,-99.99,WSDL version 342,2013-04-09 22:11:00,
2013-04-09 18:17:00,81.8,24.3,29.32,West,273,2.4,8.7,12,-99.99,,,-99.99,WSDL version 342,2013-04-09 22:17:00,
2013-04-09 18:23:00,81.6,24.2,29.32,West,272,2.3,8.7,12,-99.99,,,-99.99,WSDL version 342,2013-04-09 22:23:00,
2013-04-09 18:28:00,81.4,24.0,29.32,SW,229,1.3,4.0,12,-99.99,,,-99.99,WSDL version 342,2013-04-09 22:28:00,
2013-04-09 18:33:00,81.2,23.8,29.32,WSW,248,0.8,4.0,12,-99.99,,,-99.99,WSDL version 342,2013-04-09 22:33:00,
2013-04-09 18:39:00,80.6,23.4,29.32,SW,221,0.7,3.8,12,-99.99,,,-99.99,WSDL version 342,2013-04-09 22:39:00,
2013-04-09 18:44:00,79.9,22.8,29.32,SW,225,2.7,5.4,12,-99.99,,,-99.99,WSDL version 342,2013-04-09 22:44:00,
2013-04-09 18:50:00,79.2,22.2,29.32,South,180,3.8,8.5,12,-99.99,,,-99.99,WSDL version 342,2013-04-09 22:50:00,
2013-04-09 18:55:00,78.7,22.8,29.32,SSW,206,1.9,8.5,13,-99.99,,,-99.99,WSDL version 342,2013-04-09 22:55:00,
2013-04-09 19:00:00,78.4,23.6,29.32,SSW,194,1.5,6.0,13,-99.99,,,-99.99,WSDL version 342,2013-04-09 23:00:00,
2013-04-09 19:05:00,78.1,23.3,29.32,SW,219,0.8,3.1,13,-99.99,,,-99.99,WSDL version 342,2013-04-09 23:05:00,
2013-04-09 19:10:00,77.7,23.0,29.32,South,177,0.0,4.3,13,-99.99,,,-99.99,WSDL version 342,2013-04-09 23:10:00,
2013-04-09 19:15:00,77.3,22.6,29.32,SW,215,0.7,5.6,13,-99.99,,,-99.99,WSDL version 342,2013-04-09 23:15:00,
2013-04-09 19:20:00,77.0,22.4,29.32,SW,231,0.0,5.6,13,-99.99,,,-99.99,WSDL version 342,2013-04-09 23:20:00,
2013-04-09 19:25:00,76.5,22.0,29.32,SW,221,0.0,2.9,13,-99.99,,,-99.99,WSDL version 342,2013-04-09 23:25:00,
2013-04-09 19:30:00,75.9,21.6,29.32,SW,219,0.0,1.6,13,-99.99,,,-99.99,WSDL version 342,2013-04-09 23:30:00,
2013-04-09 19:35:00,75.3,21.1,29.32,SSW,203,0.0,1.3,13,-99.99,,,-99.99,WSDL version 342,2013-04-09 23:35:00,
2013-04-09 19:40:00,74.8,20.7,29.32,SSE,161,0.0,0.0,13,-99.99,,,-99.99,WSDL version 342,2013-04-09 23:40:00,
2013-04-09 19:45:00,74.4,20.4,29.32,South,180,0.0,0.0,13,-99.99,,,-99.99,WSDL version 342,2013-04-09 23:45:00,
2013-04-09 19:50:00,73.9,20.0,29.35,South,180,0.0,0.0,13,-99.99,,,-99.99,WSDL version 342,2013-04-09 23:50:00,
2013-04-09 19:55:00,73.6,19.7,29.35,South,173,0.0,0.9,13,-99.99,,,-99.99,WSDL version 342,2013-04-09 23:55:00,
2013-04-09 20:00:00,73.4,19.6,29.35,SE,124,0.0,2.5,13,-99.99,,,-99.99,WSDL version 342,2013-04-10 00:00:00,
2013-04-09 20:05:00,73.3,20.8,29.32,ESE,115,0.0,2.5,14,-99.99,,,-99.99,WSDL version 342,2013-04-10 00:05:00,
2013-04-09 20:10:00,73.0,21.0,29.32,SE,131,0.0,2.5,14,-99.99,,,-99.99,WSDL version 342,2013-04-10 00:10:00,
2013-04-09 20:15:00,72.9,21.0,29.32,SE,135,0.0,2.5,14,-99.99,,,-99.99,WSDL version 342,2013-04-10 00:15:00,
2013-04-09 20:20:00,72.7,20.8,29.35,SE,128,0.4,2.7,14,-99.99,,,-99.99,WSDL version 342,2013-04-10 00:20:00,
2013-04-09 20:25:00,72.7,20.8,29.35,SSE,158,0.9,2.7,14,-99.99,,,-99.99,WSDL version 342,2013-04-10 00:25:00,
2013-04-09 20:30:00,72.5,20.6,29.35,SSE,158,0.9,1.3,14,-99.99,,,-99.99,WSDL version 342,2013-04-10 00:30:00,
2013-04-09 20:35:00,72.4,20.5,29.35,SSE,158,0.9,0.0,14,-99.99,,,-99.99,WSDL version 342,2013-04-10 00:35:00,
2013-04-09 20:40:00,72.1,20.3,29.35,North,0,0.0,0.0,14,-99.99,,,-99.99,WSDL version 342,2013-04-10 00:40:00,
2013-04-09 20:45:00,72.1,20.3,29.35,North,-999,-999.0,-999.0,14,-99.99,,,-99.99,WSDL version 342,2013-04-10 00:45:00,
2013-04-09 20:50:00,72.1,20.3,29.35,North,-999,-999.0,-999.0,14,-99.99,,,-99.99,WSDL version 342,2013-04-10 00:50:00,
2013-04-09 20:55:00,72.2,20.4,29.35,North,-999,-999.0,-999.0,14,-99.99,,,-99.99,WSDL version 342,2013-04-10 00:55:00,
2013-04-09 21:00:00,72.3,20.5,29.35,WNW,293,0.9,0.0,14,-99.99,,,-99.99,WSDL version 342,2013-04-10 01:00:00,
2013-04-09 21:05:00,72.4,20.6,29.35,West,270,0.9,3.1,14,-99.99,,,-99.99,WSDL version 342,2013-04-10 01:05:00,
2013-04-09 21:10:00,72.4,20.6,29.35,SW,236,1.0,3.1,14,-99.99,,,-99.99,WSDL version 342,2013-04-10 01:10:00,
2013-04-09 21:15:00,72.1,21.1,29.35,South,180,1.3,2.0,14,-99.99,,,-99.99,WSDL version 342,2013-04-10 01:15:00,
2013-04-09 21:20:00,71.8,20.1,29.35,South,180,1.3,2.0,14,-99.99,,,-99.99,WSDL version 342,2013-04-10 01:20:00,
2013-04-09 21:25:00,71.8,21.3,29.35,SSE,165,1.5,0.0,16,-99.99,,,-99.99,WSDL version 342,2013-04-10 01:25:00,
2013-04-09 21:30:00,72.0,22.6,29.35,SSE,158,0.0,0.0,16,-99.99,,,-99.99,WSDL version 342,2013-04-10 01:30:00,
2013-04-09 21:35:00,72.0,23.4,29.35,SSE,158,0.0,0.0,16,-99.99,,,-99.99,WSDL version 342,2013-04-10 01:35:00,
2013-04-09 21:40:00,72.1,23.4,29.35,SSE,158,0.0,0.0,16,-99.99,,,-99.99,WSDL version 342,2013-04-10 01:40:00,
2013-04-09 21:45:00,72.2,23.6,29.35,SSE,158,0.0,0.0,16,-99.99,,,-99.99,WSDL version 342,2013-04-10 01:45:00,
2013-04-09 21:50:00,72.5,23.8,29.35,North,-999,-999.0,-999.0,16,-99.99,,,-99.99,WSDL version 342,2013-04-10 01:50:00,
2013-04-09 21:55:00,72.5,23.8,29.35,ESE,113,0.0,0.0,16,-99.99,,,-99.99,WSDL version 342,2013-04-10 01:55:00,
2013-04-09 22:00:00,72.3,23.6,29.35,ESE,113,0.0,0.0,16,-99.99,,,-99.99,WSDL version 342,2013-04-10 02:00:00,
2013-04-09 22:05:00,72.2,23.5,29.35,ESE,113,0.0,0.0,16,-99.99,,,-99.99,WSDL version 342,2013-04-10 02:05:00,
2013-04-09 22:10:00,72.1,23.5,29.35,East,90,0.0,0.0,16,-99.99,,,-99.99,WSDL version 342,2013-04-10 02:10:00,
2013-04-09 22:15:00,72.0,23.4,29.35,SE,143,0.6,2.5,16,-99.99,,,-99.99,WSDL version 342,2013-04-10 02:15:00,
2013-04-09 22:21:00,71.7,23.2,29.32,SE,135,0.0,2.5,16,-99.99,,,-99.99,WSDL version 342,2013-04-10 02:21:00,
2013-04-09 22:27:00,71.6,23.1,29.32,SE,135,0.0,0.0,16,-99.99,,,-99.99,WSDL version 342,2013-04-10 02:27:00,
2013-04-09 22:33:00,71.5,23.7,29.32,SE,135,0.0,0.0,17,-99.99,,,-99.99,WSDL version 342,2013-04-10 02:33:00,
2013-04-09 22:39:00,71.4,24.4,29.32,North,-999,-999.0,-999.0,17,-99.99,,,-99.99,WSDL version 342,2013-04-10 02:39:00,
2013-04-09 22:45:00,71.2,24.2,29.32,SSE,158,0.0,0.0,17,-99.99,,,-99.99,WSDL version 342,2013-04-10 02:45:00,
2013-04-09 22:50:00,71.1,24.1,29.29,SSE,158,0.0,0.0,17,-99.99,,,-99.99,WSDL version 342,2013-04-10 02:50:00,
2013-04-09 22:55:00,71.3,24.3,29.29,SSE,158,0.0,0.0,17,-99.99,,,-99.99,WSDL version 342,2013-04-10 02:55:00,
2013-04-09 23:00:00,71.2,24.2,29.29,North,-999,-999.0,-999.0,17,-99.99,,,-99.99,WSDL version 342,2013-04-10 03:00:00,
2013-04-09 23:05:00,71.2,26.9,29.32,ENE,68,4.9,4.9,19,-99.99,,,-99.99,WSDL version 342,2013-04-10 03:05:00,
2013-04-09 23:10:00,71.2,26.9,29.32,ENE,68,4.9,4.9,19,-99.99,,,-99.99,WSDL version 342,2013-04-10 03:10:00,
2013-04-09 23:15:00,71.2,29.8,29.32,ENE,68,4.9,4.9,22,-99.99,,,-99.99,WSDL version 342,2013-04-10 03:15:00,
2013-04-09 23:20:00,71.1,30.4,29.32,North,-999,-999.0,-999.0,22,-99.99,,,-99.99,WSDL version 342,2013-04-10 03:20:00,
2013-04-09 23:25:00,70.7,30.0,29.32,SW,225,4.5,4.5,22,-99.99,,,-99.99,WSDL version 342,2013-04-10 03:25:00,
2013-04-09 23:30:00,70.7,30.0,29.32,SSE,158,3.1,3.4,22,-99.99,,,-99.99,WSDL version 342,2013-04-10 03:30:00,
2013-04-09 23:35:00,70.5,29.9,29.29,NW,304,4.0,7.2,22,-99.99,,,-99.99,WSDL version 342,2013-04-10 03:35:00,
2013-04-09 23:40:00,70.4,30.9,29.29,SSW,195,2.7,7.2,23,-99.99,,,-99.99,WSDL version 342,2013-04-10 03:40:00,
2013-04-09 23:45:00,70.1,30.4,29.29,SSE,158,4.5,4.9,23,-99.99,,,-99.99,WSDL version 342,2013-04-10 03:45:00,
2013-04-09 23:50:00,70.0,30.7,29.29,ESE,113,6.0,6.0,24,-99.99,,,-99.99,WSDL version 342,2013-04-10 03:50:00,
2013-04-09 23:55:00,69.8,31.2,29.29,NW,315,3.1,4.9,24,-99.99,,,-99.99,WSDL version 342,2013-04-10 03:55:00,